Location: Unspecified
(51.5147°N, 7.4673°E)
Time: 19:29:37
(UTC+01:00)

A-11 Canister half - Pass Details

Date: 24 February 2026
Orbit: 1512 x 1687 km, 47.2° (Epoch: 8 March)

Event Time Altitude Azimuth Distance (km) Brightness Sun altitude
Rises 21:12:00 0° 246° (WSW) 4,938 12.2 -29.8°
Reaches altitude 10° 21:15:13 10° 244° (WSW) 3,950 11.6 -30.2°
Maximum altitude 21:25:12 65° 166° (SSE) 1,812 9.0 -31.6°
Enters shadow 21:26:09 62° 140° (SE) 1,840 9.0 -31.7°
Drops below altitude 10° 21:35:00 10° 88° (E) 3,875 - -32.9°
Sets 21:38:06 0° 86° (E) 4,840 - -33.4°
